This demonstration page uses our WeatherBlox Daily Observations layout. Learn more.

Left ArrowRight Arrow

Hourly Observations for May 6, 2021

Temp ( °F °C ) Dew Point ( °F °C ) Humidity (%) Winds ( mph kmh ) Pressure ( in mb ) Visibility ( mi km ) Precip ( " mm )
12:54 am 00:54 Clear 49 9.4 45 7.2 86 86 NNW 12 19 30.17 1022 10 16 N/A
1:54 am 01:54 Clear 46 7.8 41 5 83 83 N 15 24 30.20 1023 10 16 N/A
2:54 am 02:54 Clear 44 6.7 39 3.9 83 83 N 16 26 30.22 1023 10 16 N/A
3:54 am 03:54 Clear 42 5.6 38 3.3 85 85 NNW 15 24 30.24 1024 10 16 N/A
4:54 am 04:54 Mostly Clear 42 5.6 37 2.8 82 82 NNW 14 22 30.27 1025 10 16 N/A
5:54 am 05:54 Clear 40 4.4 36 2.2 86 86 N 14 22 30.29 1026 10 16 N/A
6:54 am 06:54 Mostly Sunny 40 4.4 35 1.7 83 83 N 14 22 30.32 1027 10 16 N/A
7:16 am 07:16 Mostly Cloudy 41 5 36 2.2 82 82 N 16 26 30.36 1028 10 16 N/A
7:54 am 07:54 Mostly Cloudy 42 5.6 36 2.2 79 79 N 9 15 30.35 1028 10 16 N/A
8:18 am 08:18 Partly Cloudy 43 6.1 36 2.2 76 76 N 12 19 30.38 1029 10 16 N/A
8:54 am 08:54 Mostly Sunny 46 7.8 37 2.8 71 71 N 15 24 30.37 1029 10 16 N/A
9:54 am 09:54 Sunny 50 10 39 3.9 66 66 N 13 20 30.37 1028 10 16 N/A
10:54 am 10:54 Sunny 53 11.7 39 3.9 59 59 N 10 17 30.37 1029 10 16 N/A
11:54 am 11:54 Sunny 57 13.9 38 3.3 49 49 N 10 17 30.36 1028 10 16 N/A
12:54 pm 12:54 Sunny 59 15 36 2.2 42 42 VRB 5 7 30.33 1027 10 16 N/A
1:54 pm 13:54 Sunny 63 17.2 34 1.1 34 34 N 8 13 30.29 1026 10 16 N/A
2:54 pm 14:54 Mostly Sunny 65 18.3 33 0.6 31 31 NNW 13 20 30.27 1025 10 16 N/A
3:54 pm 15:54 Sunny 67 19.4 32 undefined 27 27 NNW 15 24 30.25 1024 10 16 N/A
4:54 pm 16:54 Sunny 67 19.4 33 0.6 28 28 N 7 11 30.22 1024 10 16 N/A
5:54 pm 17:54 Cloudy 65 18.3 31 -0.6 28 28 WNW 7 11 30.22 1023 10 16 N/A
6:54 pm 18:54 Mostly Sunny 64 17.8 33 0.6 32 32 N 5 7 30.20 1023 10 16 N/A
7:54 pm 19:54 Sunny 60 15.6 38 3.3 44 44 S 6 9 30.19 1022 10 16 N/A
8:54 pm 20:54 Clear 54 12.2 38 3.3 55 55 SSE 6 9 30.18 1022 10 16 N/A
9:54 pm 21:54 Clear 54 12.2 37 2.8 53 53 S 6 9 30.18 1022 10 16 N/A
10:54 pm 22:54 Clear 53 11.7 37 2.8 55 55 SSE 3 6 30.17 1022 10 16 N/A
11:54 pm 23:54 Clear 52 11.1 36 2.2 55 55 S 3 6 30.15 1021 10 16 N/A

Powered by AerisWeather